AVA80 SPZO-SKBO

Flight info

Callsign AVA80
Flight time 2h 42m
Altitude 38000
Route CEMIL DCT TOMIX UL300 IQT/N0464F370 UL300 POVSO/N0460F380 DCT GIR GIR5W
Aircraft A319/M-SDE3FGHIRWY/LB1

Departure

Time 2026-05-08 10:07
Airport Alejandro Velasco Astete International Airport (SPZO)

Arrival

Time 2026-05-08 12:49
Airport El Dorado International Airport (SKBO)
Time Latitude Longitude Altitude Speed Heading
2026-05-08 09:56 -13.53741 -71.94407 10816 ft 0 kts 146°
2026-05-08 09:58 -13.53741 -71.94408 10816 ft 1 kts 146°
2026-05-08 09:58 -13.53721 -71.94422 10817 ft 4 kts 140°
2026-05-08 09:59 -13.53703 -71.94441 10815 ft 4 kts 116°
2026-05-08 09:59 -13.53698 -71.94453 10816 ft 4 kts 72°
2026-05-08 09:59 -13.53702 -71.94459 10815 ft 1 kts 11°
2026-05-08 09:59 -13.53705 -71.94460 10815 ft 0 kts 11°
2026-05-08 10:01 -13.53702 -71.94459 10817 ft 1 kts 11°
2026-05-08 10:01 -13.53689 -71.94456 10817 ft 3 kts 11°
2026-05-08 10:02 -13.53665 -71.94454 10815 ft 4 kts 354°
2026-05-08 10:02 -13.53649 -71.94478 10817 ft 5 kts 283°
2026-05-08 10:02 -13.53645 -71.94518 10817 ft 6 kts 275°
2026-05-08 10:02 -13.53640 -71.94565 10818 ft 6 kts 276°
2026-05-08 10:03 -13.53635 -71.94603 10821 ft 4 kts 276°
2026-05-08 10:03 -13.53632 -71.94630 10823 ft 4 kts 276°
2026-05-08 10:03 -13.53628 -71.94669 10825 ft 7 kts 276°
2026-05-08 10:03 -13.53623 -71.94727 10829 ft 9 kts 275°
2026-05-08 10:04 -13.53615 -71.94803 10833 ft 12 kts 276°
2026-05-08 10:04 -13.53606 -71.94895 10839 ft 14 kts 276°
2026-05-08 10:04 -13.53596 -71.94995 10852 ft 14 kts 276°
2026-05-08 10:04 -13.53586 -71.95097 10863 ft 14 kts 276°
2026-05-08 10:05 -13.53575 -71.95206 10863 ft 17 kts 275°
2026-05-08 10:05 -13.53563 -71.95327 10864 ft 18 kts 276°
2026-05-08 10:05 -13.53552 -71.95426 10863 ft 9 kts 287°
2026-05-08 10:05 -13.53494 -71.95448 10864 ft 10 kts
2026-05-08 10:06 -13.53427 -71.95424 10865 ft 10 kts 42°
2026-05-08 10:06 -13.53420 -71.95382 10865 ft 0 kts 95°
2026-05-08 10:06 -13.53421 -71.95374 10865 ft 8 kts 95°
2026-05-08 10:06 -13.53452 -71.95068 10876 ft 78 kts 96°
2026-05-08 10:07 -13.53531 -71.94294 10815 ft 137 kts 96°
2026-05-08 10:07 -13.53648 -71.93141 10762 ft 187 kts 96°
2026-05-08 10:07 -13.53775 -71.91822 11432 ft 182 kts 96°
2026-05-08 10:07 -13.53904 -71.90521 12158 ft 185 kts 97°
2026-05-08 10:08 -13.54111 -71.89161 12198 ft 203 kts 105°
2026-05-08 10:08 -13.54635 -71.87739 12354 ft 223 kts 117°
2026-05-08 10:08 -13.55348 -71.86230 12489 ft 247 kts 113°
2026-05-08 10:08 -13.55953 -71.84513 13014 ft 257 kts 110°
2026-05-08 10:09 -13.56549 -71.82769 13712 ft 260 kts 110°
2026-05-08 10:09 -13.57208 -71.81031 14179 ft 262 kts 112°
2026-05-08 10:09 -13.57893 -71.79300 14821 ft 262 kts 113°
2026-05-08 10:09 -13.58583 -71.77558 15434 ft 264 kts 112°
2026-05-08 10:10 -13.59287 -71.75809 16014 ft 266 kts 115°
2026-05-08 10:10 -13.60179 -71.74131 16580 ft 269 kts 123°
2026-05-08 10:10 -13.61309 -71.72591 17154 ft 271 kts 131°
2026-05-08 10:10 -13.62611 -71.71173 17719 ft 274 kts 134°
2026-05-08 10:11 -13.63936 -71.69753 18298 ft 276 kts 133°
2026-05-08 10:11 -13.65234 -71.68283 18810 ft 279 kts 126°
2026-05-08 10:11 -13.66215 -71.66557 19266 ft 282 kts 112°
2026-05-08 10:11 -13.66714 -71.64632 19717 ft 284 kts 93°
2026-05-08 10:12 -13.66492 -71.62618 20159 ft 287 kts 70°
2026-05-08 10:12 -13.65482 -71.60855 20611 ft 289 kts 45°
2026-05-08 10:12 -13.63838 -71.59675 21062 ft 291 kts 20°
2026-05-08 10:12 -13.61852 -71.59268 21538 ft 293 kts
2026-05-08 10:13 -13.59770 -71.59130 21741 ft 309 kts
2026-05-08 10:13 -13.57560 -71.58985 21878 ft 327 kts
2026-05-08 10:13 -13.55230 -71.58824 22003 ft 344 kts
2026-05-08 10:13 -13.52787 -71.58649 22130 ft 360 kts
2026-05-08 10:14 -13.50231 -71.58462 22231 ft 376 kts
2026-05-08 10:14 -13.47573 -71.58263 22351 ft 390 kts
2026-05-08 10:14 -13.44817 -71.58057 22458 ft 405 kts
2026-05-08 10:14 -13.41961 -71.57845 22595 ft 418 kts
2026-05-08 10:15 -13.39020 -71.57629 22720 ft 429 kts
2026-05-08 10:15 -13.36005 -71.57413 22820 ft 440 kts
2026-05-08 10:15 -13.32916 -71.57191 22949 ft 449 kts
2026-05-08 10:15 -13.29773 -71.56963 23077 ft 457 kts
2026-05-08 10:16 -13.26578 -71.56727 23209 ft 464 kts
2026-05-08 10:16 -13.23335 -71.56486 23302 ft 470 kts
2026-05-08 10:16 -13.20054 -71.56245 23421 ft 475 kts
2026-05-08 10:16 -13.16741 -71.56006 23583 ft 479 kts
2026-05-08 10:17 -13.13410 -71.55766 23797 ft 481 kts
2026-05-08 10:17 -13.10070 -71.55522 23969 ft 482 kts
2026-05-08 10:17 -13.06719 -71.55272 24184 ft 484 kts
2026-05-08 10:17 -13.03357 -71.55019 24394 ft 485 kts
2026-05-08 10:18 -12.99984 -71.54770 24610 ft 487 kts
2026-05-08 10:18 -12.96596 -71.54523 24832 ft 488 kts
2026-05-08 10:18 -12.93203 -71.54279 25010 ft 490 kts
2026-05-08 10:18 -12.89801 -71.54033 25222 ft 491 kts
2026-05-08 10:19 -12.86386 -71.53783 25431 ft 492 kts
2026-05-08 10:19 -12.82967 -71.53535 25639 ft 494 kts
2026-05-08 10:19 -12.79534 -71.53289 25825 ft 495 kts
2026-05-08 10:20 -12.72687 -71.53461 26415 ft 492 kts 349°
2026-05-08 10:20 -12.69332 -71.54143 26744 ft 491 kts 347°
2026-05-08 10:20 -12.65988 -71.54835 27069 ft 490 kts 347°
2026-05-08 10:20 -12.62653 -71.55519 27429 ft 488 kts 347°
2026-05-08 10:21 -12.59325 -71.56198 27811 ft 488 kts 347°
2026-05-08 10:21 -12.55998 -71.56877 28164 ft 487 kts 347°
2026-05-08 10:21 -12.52675 -71.57560 28506 ft 487 kts 347°
2026-05-08 10:21 -12.49358 -71.58244 28879 ft 486 kts 347°
2026-05-08 10:22 -12.46039 -71.58928 29240 ft 485 kts 347°
2026-05-08 10:22 -12.42733 -71.59605 29673 ft 484 kts 347°
2026-05-08 10:22 -12.39431 -71.60280 29882 ft 483 kts 347°
2026-05-08 10:23 -12.32846 -71.61623 29913 ft 482 kts 347°
2026-05-08 10:23 -12.26275 -71.62972 29909 ft 482 kts 346°
2026-05-08 10:24 -12.19699 -71.64329 29905 ft 482 kts 346°
2026-05-08 10:24 -12.13122 -71.65680 29901 ft 482 kts 347°
2026-05-08 10:25 -12.06536 -71.67032 29895 ft 482 kts 347°
2026-05-08 10:25 -11.99957 -71.68383 29888 ft 482 kts 347°
2026-05-08 10:26 -11.93372 -71.69734 29886 ft 482 kts 347°
2026-05-08 10:26 -11.86831 -71.71073 29895 ft 482 kts 347°
2026-05-08 10:27 -11.80251 -71.72420 29886 ft 482 kts 347°
2026-05-08 10:27 -11.73671 -71.73764 29886 ft 482 kts 347°
2026-05-08 10:28 -11.67098 -71.75105 29894 ft 482 kts 347°
2026-05-08 10:28 -11.60524 -71.76449 29895 ft 482 kts 347°
2026-05-08 10:29 -11.53945 -71.77801 29896 ft 482 kts 346°
2026-05-08 10:29 -11.47371 -71.79145 29899 ft 482 kts 347°
2026-05-08 10:30 -11.40797 -71.80489 29894 ft 482 kts 346°
2026-05-08 10:30 -11.34219 -71.81832 29896 ft 482 kts 346°
2026-05-08 10:31 -11.27639 -71.83177 29899 ft 483 kts 346°
2026-05-08 10:31 -11.21049 -71.84520 29904 ft 483 kts 347°
2026-05-08 10:32 -11.14459 -71.85860 29902 ft 483 kts 347°
2026-05-08 10:32 -11.08980 -71.86975 29914 ft 483 kts 347°
2026-05-08 10:33 -11.01316 -71.88537 29914 ft 483 kts 346°
2026-05-08 10:33 -10.94723 -71.89880 29914 ft 483 kts 347°
2026-05-08 10:34 -10.89189 -71.91002 29922 ft 484 kts 347°
2026-05-08 10:34 -10.82590 -71.92344 29921 ft 483 kts 346°
2026-05-08 10:35 -10.76037 -71.93676 29908 ft 483 kts 346°
2026-05-08 10:35 -10.69435 -71.95022 29900 ft 484 kts 346°
2026-05-08 10:36 -10.62783 -71.96373 29906 ft 484 kts 346°
2026-05-08 10:36 -10.56171 -71.97715 29904 ft 485 kts 346°
2026-05-08 10:37 -10.49600 -71.99054 29907 ft 485 kts 346°
2026-05-08 10:37 -10.42984 -72.00390 29904 ft 485 kts 346°
2026-05-08 10:38 -10.36362 -72.01729 29902 ft 485 kts 346°
2026-05-08 10:38 -10.29747 -72.03079 29894 ft 485 kts 346°
2026-05-08 10:39 -10.23129 -72.04426 29906 ft 485 kts 346°
2026-05-08 10:39 -10.16507 -72.05760 29905 ft 485 kts 346°
2026-05-08 10:40 -10.09885 -72.07098 29907 ft 485 kts 346°
2026-05-08 10:40 -10.03260 -72.08437 29898 ft 485 kts 346°
2026-05-08 10:41 -9.96636 -72.09771 29899 ft 486 kts 346°
2026-05-08 10:41 -9.90005 -72.11090 29899 ft 486 kts 347°
2026-05-08 10:42 -9.83363 -72.12403 29899 ft 486 kts 347°
2026-05-08 10:42 -9.76729 -72.13713 29905 ft 486 kts 347°
2026-05-08 10:43 -9.70087 -72.15021 29902 ft 486 kts 347°
2026-05-08 10:43 -9.63439 -72.16334 29905 ft 487 kts 347°
2026-05-08 10:44 -9.56783 -72.17660 29899 ft 488 kts 346°
2026-05-08 10:44 -9.50125 -72.18982 29898 ft 488 kts 347°
2026-05-08 10:45 -9.43448 -72.20252 29914 ft 488 kts 347°
2026-05-08 10:45 -9.36760 -72.21490 29906 ft 488 kts 347°
2026-05-08 10:46 -9.30078 -72.22746 29903 ft 489 kts 347°
2026-05-08 10:46 -9.23386 -72.24020 29903 ft 490 kts 347°
2026-05-08 10:47 -9.16690 -72.25298 29901 ft 490 kts 347°
2026-05-08 10:47 -9.10031 -72.26558 29905 ft 490 kts 347°
2026-05-08 10:48 -9.03281 -72.27836 29908 ft 490 kts 347°
2026-05-08 10:48 -8.96576 -72.29099 29904 ft 490 kts 347°
2026-05-08 10:49 -8.89922 -72.30415 29900 ft 490 kts 346°
2026-05-08 10:49 -8.83238 -72.31816 29903 ft 491 kts 346°
2026-05-08 10:50 -8.76549 -72.33212 29905 ft 491 kts 346°
2026-05-08 10:50 -8.69855 -72.34582 29906 ft 491 kts 346°
2026-05-08 10:51 -8.63154 -72.35945 29907 ft 491 kts 346°
2026-05-08 10:51 -8.56452 -72.37320 29905 ft 492 kts 346°
2026-05-08 10:52 -8.49744 -72.38697 29904 ft 492 kts 346°
2026-05-08 10:52 -8.43033 -72.40070 29904 ft 492 kts 346°
2026-05-08 10:53 -8.36318 -72.41442 29907 ft 492 kts 346°
2026-05-08 10:53 -8.29601 -72.42815 29906 ft 493 kts 347°
2026-05-08 10:54 -8.22880 -72.44184 29901 ft 493 kts 347°
2026-05-08 10:54 -8.16158 -72.45558 29901 ft 493 kts 347°
2026-05-08 10:55 -8.09433 -72.46941 29900 ft 493 kts 347°
2026-05-08 10:55 -8.02703 -72.48317 29904 ft 493 kts 347°
2026-05-08 10:56 -7.95972 -72.49686 29902 ft 494 kts 347°
2026-05-08 10:56 -7.89235 -72.51058 29900 ft 494 kts 347°
2026-05-08 10:57 -7.82492 -72.52437 29901 ft 494 kts 347°
2026-05-08 10:57 -7.72378 -72.54508 29906 ft 495 kts 347°
2026-05-08 10:58 -7.65668 -72.55858 29901 ft 495 kts 347°
2026-05-08 10:58 -7.58909 -72.57191 29904 ft 495 kts 347°
2026-05-08 10:59 -7.52148 -72.58526 29904 ft 495 kts 347°
2026-05-08 10:59 -7.45394 -72.59872 29908 ft 495 kts 347°
2026-05-08 11:00 -7.38632 -72.61217 29903 ft 495 kts 347°
2026-05-08 11:00 -7.31866 -72.62557 29902 ft 496 kts 347°
2026-05-08 11:01 -7.25102 -72.63902 29908 ft 496 kts 347°
2026-05-08 11:01 -7.18287 -72.65260 29904 ft 496 kts 347°
2026-05-08 11:02 -7.08163 -72.67269 29910 ft 497 kts 347°
2026-05-08 11:03 -7.01379 -72.68611 29908 ft 497 kts 347°
2026-05-08 11:03 -6.94593 -72.69946 29910 ft 497 kts 347°
2026-05-08 11:04 -6.87807 -72.71288 29909 ft 497 kts 347°
2026-05-08 11:04 -6.81023 -72.72637 29910 ft 497 kts 347°
2026-05-08 11:05 -6.74233 -72.73984 29912 ft 497 kts 347°
2026-05-08 11:05 -6.67439 -72.75322 29912 ft 497 kts 347°
2026-05-08 11:06 -6.60650 -72.76666 29912 ft 497 kts 347°
2026-05-08 11:06 -6.53861 -72.78020 29916 ft 497 kts 347°
2026-05-08 11:07 -6.47065 -72.79372 29910 ft 498 kts 347°
2026-05-08 11:07 -6.40258 -72.80720 29911 ft 499 kts 347°
2026-05-08 11:08 -6.33448 -72.82064 29908 ft 499 kts 347°
2026-05-08 11:08 -6.26634 -72.83407 29911 ft 499 kts 347°
2026-05-08 11:09 -6.19817 -72.84758 29915 ft 499 kts 347°
2026-05-08 11:09 -6.12998 -72.86102 29913 ft 500 kts 347°
2026-05-08 11:10 -6.06166 -72.87445 29914 ft 500 kts 347°
2026-05-08 11:10 -5.99330 -72.88794 29912 ft 501 kts 347°
2026-05-08 11:11 -5.92492 -72.90151 29908 ft 501 kts 347°
2026-05-08 11:11 -5.85653 -72.91509 29910 ft 501 kts 347°
2026-05-08 11:12 -5.78807 -72.92855 29907 ft 501 kts 347°
2026-05-08 11:12 -5.71961 -72.94207 29909 ft 501 kts 347°
2026-05-08 11:13 -5.65111 -72.95554 29908 ft 502 kts 347°
2026-05-08 11:13 -5.58304 -72.96888 29908 ft 502 kts 347°
2026-05-08 11:14 -5.51448 -72.98228 29909 ft 502 kts 347°
2026-05-08 11:14 -5.44594 -72.99567 29910 ft 502 kts 347°
2026-05-08 11:15 -5.37729 -73.00901 29902 ft 503 kts 347°
2026-05-08 11:15 -5.30864 -73.02243 29903 ft 503 kts 347°
2026-05-08 11:16 -5.23989 -73.03595 29900 ft 503 kts 347°
2026-05-08 11:16 -5.17113 -73.04929 29903 ft 503 kts 347°
2026-05-08 11:17 -5.10238 -73.06267 29908 ft 503 kts 347°
2026-05-08 11:17 -5.03359 -73.07611 29904 ft 504 kts 347°
2026-05-08 11:18 -4.96467 -73.08953 29902 ft 504 kts 347°
2026-05-08 11:18 -4.89574 -73.10299 29897 ft 505 kts 347°
2026-05-08 11:19 -4.82681 -73.11645 29899 ft 505 kts 347°
2026-05-08 11:19 -4.75779 -73.12993 29901 ft 505 kts 347°
2026-05-08 11:20 -4.68877 -73.14336 29898 ft 505 kts 347°
2026-05-08 11:20 -4.63139 -73.15451 29898 ft 506 kts 347°
2026-05-08 11:21 -4.56225 -73.16798 29899 ft 506 kts 347°
2026-05-08 11:21 -4.49314 -73.18150 29900 ft 506 kts 347°
2026-05-08 11:22 -4.42399 -73.19499 29898 ft 506 kts 347°
2026-05-08 11:22 -4.35482 -73.20843 29897 ft 506 kts 347°
2026-05-08 11:23 -4.28562 -73.22182 29896 ft 507 kts 347°
2026-05-08 11:23 -4.21636 -73.23527 29894 ft 507 kts 347°
2026-05-08 11:24 -4.14708 -73.24875 29892 ft 507 kts 347°
2026-05-08 11:24 -4.07782 -73.26224 29891 ft 507 kts 347°
2026-05-08 11:25 -4.00851 -73.27569 29884 ft 507 kts 347°
2026-05-08 11:25 -3.93922 -73.28917 29882 ft 507 kts 347°
2026-05-08 11:26 -3.86988 -73.30264 29880 ft 507 kts 347°
2026-05-08 11:26 -3.80063 -73.31612 29881 ft 507 kts 347°
2026-05-08 11:27 -3.73077 -73.32697 29882 ft 508 kts 351°
2026-05-08 11:27 -3.66038 -73.33418 29887 ft 509 kts 353°
2026-05-08 11:28 -3.58993 -73.34104 29883 ft 509 kts 352°
2026-05-08 11:28 -3.51960 -73.34898 29888 ft 509 kts 352°
2026-05-08 11:29 -3.44986 -73.35743 29896 ft 509 kts 352°
2026-05-08 11:29 -3.37954 -73.36581 29896 ft 509 kts 352°
2026-05-08 11:30 -3.30923 -73.37404 29899 ft 509 kts 352°
2026-05-08 11:30 -3.23890 -73.38216 29902 ft 509 kts 352°
2026-05-08 11:31 -3.16851 -73.39033 29896 ft 509 kts 352°
2026-05-08 11:31 -3.09805 -73.39850 29896 ft 510 kts 352°
2026-05-08 11:32 -3.02759 -73.40665 29896 ft 510 kts 352°
2026-05-08 11:32 -2.95713 -73.41483 29900 ft 510 kts 352°
2026-05-08 11:33 -2.88664 -73.42303 29902 ft 510 kts 352°
2026-05-08 11:33 -2.81608 -73.43122 29900 ft 510 kts 352°
2026-05-08 11:34 -2.74554 -73.43943 29902 ft 510 kts 352°
2026-05-08 11:34 -2.67495 -73.44764 29902 ft 511 kts 352°
2026-05-08 11:35 -2.60437 -73.45585 29903 ft 511 kts 352°
2026-05-08 11:35 -2.53378 -73.46401 29905 ft 511 kts 352°
2026-05-08 11:36 -2.46316 -73.47224 29909 ft 511 kts 352°
2026-05-08 11:36 -2.39258 -73.48045 29910 ft 511 kts 351°
2026-05-08 11:37 -2.32198 -73.48866 29917 ft 511 kts 352°
2026-05-08 11:37 -2.25140 -73.49682 29916 ft 511 kts 352°
2026-05-08 11:38 -2.18079 -73.50495 29916 ft 511 kts 352°
2026-05-08 11:38 -2.11025 -73.51321 29917 ft 510 kts 351°
2026-05-08 11:39 -2.03971 -73.52137 29920 ft 510 kts 352°
2026-05-08 11:39 -1.96964 -73.52949 29919 ft 510 kts 351°
2026-05-08 11:40 -1.89915 -73.53774 29921 ft 510 kts 352°
2026-05-08 11:40 -1.82866 -73.54592 29917 ft 510 kts 352°
2026-05-08 11:41 -1.75819 -73.55405 29916 ft 510 kts 352°
2026-05-08 11:41 -1.68772 -73.56221 29917 ft 510 kts 351°
2026-05-08 11:42 -1.61725 -73.57037 29919 ft 510 kts 352°
2026-05-08 11:42 -1.54677 -73.57850 29919 ft 510 kts 352°
2026-05-08 11:43 -1.47628 -73.58665 29918 ft 510 kts 352°
2026-05-08 11:43 -1.40578 -73.59484 29920 ft 510 kts 351°
2026-05-08 11:44 -1.33525 -73.60305 29918 ft 510 kts 351°
2026-05-08 11:44 -1.26472 -73.61120 29921 ft 510 kts 351°
2026-05-08 11:45 -1.19412 -73.61939 29922 ft 511 kts 351°
2026-05-08 11:45 -1.12355 -73.62762 29926 ft 511 kts 351°
2026-05-08 11:46 -1.05296 -73.63583 29921 ft 511 kts 351°
2026-05-08 11:46 -0.98238 -73.64400 29929 ft 511 kts 351°
2026-05-08 11:47 -0.91180 -73.65205 29930 ft 510 kts 351°
2026-05-08 11:47 -0.84127 -73.66018 29934 ft 510 kts 351°
2026-05-08 11:48 -0.77074 -73.66839 29936 ft 510 kts 351°
2026-05-08 11:48 -0.70029 -73.67657 29938 ft 509 kts 352°
2026-05-08 11:49 -0.62997 -73.68471 29938 ft 509 kts 352°
2026-05-08 11:49 -0.56015 -73.69283 29939 ft 508 kts 352°
2026-05-08 11:50 -0.48992 -73.70094 29943 ft 508 kts 352°
2026-05-08 11:50 -0.41978 -73.70911 29938 ft 508 kts 352°
2026-05-08 11:51 -0.34959 -73.71726 29933 ft 508 kts 352°
2026-05-08 11:51 -0.27941 -73.72540 29936 ft 508 kts 352°
2026-05-08 11:52 -0.20926 -73.73353 29935 ft 507 kts 352°
2026-05-08 11:52 -0.13911 -73.74167 29933 ft 507 kts 352°
2026-05-08 11:53 -0.06897 -73.74974 29930 ft 507 kts 352°
2026-05-08 11:53 0.00117 -73.75788 29925 ft 507 kts 352°
2026-05-08 11:54 0.07129 -73.76606 29932 ft 507 kts 352°
2026-05-08 11:54 0.14136 -73.77424 29934 ft 507 kts 352°
2026-05-08 11:55 0.21143 -73.78235 29933 ft 507 kts 352°
2026-05-08 11:55 0.28152 -73.79038 29934 ft 507 kts 352°
2026-05-08 11:56 0.35160 -73.79850 29935 ft 507 kts 352°
2026-05-08 11:56 0.42164 -73.80663 29930 ft 507 kts 351°
2026-05-08 11:57 0.49180 -73.81473 29927 ft 508 kts 351°
2026-05-08 11:57 0.56196 -73.82286 29929 ft 508 kts 351°
2026-05-08 11:58 0.63219 -73.83103 29927 ft 508 kts 351°
2026-05-08 11:58 0.70242 -73.83912 29929 ft 508 kts 352°
2026-05-08 11:59 0.80725 -73.85125 29942 ft 507 kts 352°
2026-05-08 11:59 0.87731 -73.85948 29949 ft 507 kts 352°
2026-05-08 12:00 0.94731 -73.86765 29945 ft 506 kts 352°
2026-05-08 12:00 1.01725 -73.87572 29942 ft 506 kts 352°
2026-05-08 12:01 1.08718 -73.88377 29940 ft 506 kts 352°
2026-05-08 12:01 1.15705 -73.89190 29948 ft 505 kts 352°
2026-05-08 12:02 1.22680 -73.89999 29957 ft 504 kts 352°
2026-05-08 12:02 1.29643 -73.90802 29955 ft 503 kts 352°
2026-05-08 12:03 1.36603 -73.91604 29956 ft 503 kts 352°
2026-05-08 12:03 1.43553 -73.92411 29952 ft 503 kts 352°
2026-05-08 12:04 1.50507 -73.93220 29953 ft 502 kts 352°
2026-05-08 12:04 1.57445 -73.94020 29958 ft 502 kts 352°
2026-05-08 12:05 1.64379 -73.94828 29957 ft 501 kts 352°
2026-05-08 12:05 1.71307 -73.95636 29953 ft 501 kts 352°
2026-05-08 12:06 1.78231 -73.96436 29953 ft 501 kts 352°
2026-05-08 12:06 1.85153 -73.97235 29948 ft 501 kts 352°
2026-05-08 12:07 1.92070 -73.98040 29956 ft 500 kts 352°
2026-05-08 12:07 1.98983 -73.98847 29956 ft 500 kts 352°
2026-05-08 12:08 2.04723 -73.99520 29953 ft 500 kts 352°
2026-05-08 12:08 2.11625 -74.00323 29955 ft 499 kts 352°
2026-05-08 12:09 2.18529 -74.01119 29956 ft 499 kts 352°
2026-05-08 12:09 2.25436 -74.01921 29958 ft 499 kts 352°
2026-05-08 12:10 2.32328 -74.02721 29964 ft 499 kts 352°
2026-05-08 12:10 2.39222 -74.03514 29966 ft 498 kts 352°
2026-05-08 12:11 2.46111 -74.04311 29965 ft 498 kts 352°
2026-05-08 12:11 2.52996 -74.05110 29971 ft 498 kts 352°
2026-05-08 12:12 2.59883 -74.05912 29977 ft 498 kts 352°
2026-05-08 12:12 2.66757 -74.06713 29993 ft 497 kts 352°
2026-05-08 12:13 2.73625 -74.07509 29996 ft 496 kts 352°
2026-05-08 12:13 2.80440 -74.08299 30004 ft 496 kts 352°
2026-05-08 12:14 2.87298 -74.09098 30001 ft 496 kts 352°
2026-05-08 12:14 2.94154 -74.09899 30018 ft 496 kts 352°
2026-05-08 12:15 3.01005 -74.10693 30021 ft 496 kts 352°
2026-05-08 12:15 3.07855 -74.11483 30020 ft 495 kts 352°
2026-05-08 12:16 3.14702 -74.12279 30046 ft 495 kts 352°
2026-05-08 12:16 3.21541 -74.13077 30044 ft 495 kts 352°
2026-05-08 12:17 3.28391 -74.13883 30079 ft 495 kts 352°
2026-05-08 12:17 3.35237 -74.14681 30078 ft 495 kts 352°
2026-05-08 12:18 3.42087 -74.15472 29886 ft 497 kts 352°
2026-05-08 12:18 3.45517 -74.15870 29358 ft 496 kts 352°
2026-05-08 12:18 3.48947 -74.16267 28842 ft 496 kts 353°
2026-05-08 12:19 3.52379 -74.16664 28343 ft 497 kts 353°
2026-05-08 12:19 3.55815 -74.17062 27854 ft 498 kts 353°
2026-05-08 12:19 3.59259 -74.17463 27480 ft 499 kts 353°
2026-05-08 12:19 3.62711 -74.17866 27118 ft 499 kts 353°
2026-05-08 12:20 3.66163 -74.18269 26762 ft 500 kts 353°
2026-05-08 12:20 3.69621 -74.18673 26569 ft 500 kts 353°
2026-05-08 12:20 3.73079 -74.19077 26453 ft 500 kts 353°
2026-05-08 12:20 3.76538 -74.19482 26323 ft 501 kts 353°
2026-05-08 12:21 3.79996 -74.19887 26136 ft 500 kts 353°
2026-05-08 12:21 3.83407 -74.20287 26210 ft 501 kts 353°
2026-05-08 12:21 3.86850 -74.21034 26205 ft 501 kts 341°
2026-05-08 12:21 3.89994 -74.22411 26206 ft 500 kts 330°
2026-05-08 12:22 3.92833 -74.24405 26210 ft 500 kts 318°
2026-05-08 12:22 3.95210 -74.26905 26210 ft 499 kts 307°
2026-05-08 12:22 3.97062 -74.29830 26212 ft 497 kts 296°
2026-05-08 12:22 3.98388 -74.33023 26214 ft 497 kts 290°
2026-05-08 12:23 3.99634 -74.36251 26145 ft 498 kts 290°
2026-05-08 12:23 4.00888 -74.39482 25916 ft 498 kts 290°
2026-05-08 12:23 4.02147 -74.42713 25680 ft 498 kts 291°
2026-05-08 12:23 4.03409 -74.45945 25461 ft 499 kts 291°
2026-05-08 12:24 4.04677 -74.49186 25243 ft 499 kts 291°
2026-05-08 12:24 4.05941 -74.52423 24949 ft 499 kts 291°
2026-05-08 12:24 4.07198 -74.55654 24727 ft 499 kts 291°
2026-05-08 12:24 4.08457 -74.58892 24510 ft 499 kts 291°
2026-05-08 12:25 4.09715 -74.62125 24292 ft 497 kts 291°
2026-05-08 12:25 4.10967 -74.65351 24021 ft 496 kts 291°
2026-05-08 12:25 4.12213 -74.68565 23796 ft 495 kts 291°
2026-05-08 12:25 4.13461 -74.71781 23580 ft 494 kts 291°
2026-05-08 12:26 4.14706 -74.74985 23318 ft 492 kts 291°
2026-05-08 12:26 4.16120 -74.77996 23062 ft 490 kts 301°
2026-05-08 12:26 4.18201 -74.80682 22783 ft 488 kts 315°
2026-05-08 12:26 4.20832 -74.82814 22537 ft 486 kts 328°
2026-05-08 12:27 4.23852 -74.84291 22188 ft 483 kts 341°
2026-05-08 12:27 4.27110 -74.85062 21937 ft 477 kts 354°
2026-05-08 12:27 4.30349 -74.85094 21689 ft 457 kts
2026-05-08 12:27 4.33439 -74.84696 21446 ft 439 kts
2026-05-08 12:28 4.36413 -74.84304 21209 ft 424 kts
2026-05-08 12:28 4.39295 -74.83927 20981 ft 412 kts
2026-05-08 12:28 4.42105 -74.83560 20750 ft 402 kts
2026-05-08 12:28 4.44851 -74.83199 20525 ft 392 kts
2026-05-08 12:29 4.47523 -74.82848 20298 ft 383 kts
2026-05-08 12:29 4.50129 -74.82502 20076 ft 373 kts
2026-05-08 12:29 4.52673 -74.82164 19854 ft 364 kts
2026-05-08 12:29 4.55123 -74.81840 19638 ft 356 kts
2026-05-08 12:30 4.57553 -74.81520 19428 ft 349 kts
2026-05-08 12:30 4.59948 -74.81207 19211 ft 346 kts
2026-05-08 12:30 4.62328 -74.80895 18997 ft 344 kts
2026-05-08 12:30 4.64695 -74.80585 18785 ft 343 kts
2026-05-08 12:31 4.67059 -74.80272 18563 ft 342 kts
2026-05-08 12:31 4.69410 -74.79961 18343 ft 341 kts
2026-05-08 12:31 4.71738 -74.79563 18088 ft 338 kts 18°
2026-05-08 12:31 4.73830 -74.78549 17835 ft 333 kts 38°
2026-05-08 12:32 4.75437 -74.76918 17582 ft 328 kts 57°
2026-05-08 12:32 4.76471 -74.74894 17328 ft 326 kts 67°
2026-05-08 12:32 4.77386 -74.72823 17077 ft 324 kts 67°
2026-05-08 12:32 4.78297 -74.70758 16827 ft 323 kts 67°
2026-05-08 12:33 4.79208 -74.68699 16654 ft 323 kts 67°
2026-05-08 12:33 4.80102 -74.66687 16645 ft 309 kts 67°
2026-05-08 12:33 4.80965 -74.64753 16652 ft 300 kts 67°
2026-05-08 12:33 4.81817 -74.62845 16532 ft 299 kts 67°
2026-05-08 12:34 4.82746 -74.60745 16286 ft 296 kts 67°
2026-05-08 12:34 4.83580 -74.58866 16075 ft 294 kts 67°
2026-05-08 12:34 4.84412 -74.56996 15861 ft 293 kts 67°
2026-05-08 12:35 4.85241 -74.55137 15628 ft 291 kts 67°
2026-05-08 12:35 4.86066 -74.53288 15421 ft 290 kts 67°
2026-05-08 12:35 4.86888 -74.51446 15210 ft 289 kts 67°
2026-05-08 12:35 4.87702 -74.49614 15066 ft 288 kts 67°
2026-05-08 12:36 4.88516 -74.47785 14864 ft 286 kts 67°
2026-05-08 12:36 4.89325 -74.45963 14742 ft 286 kts 67°
2026-05-08 12:36 4.89864 -74.44068 14745 ft 283 kts 87°
2026-05-08 12:36 4.89613 -74.42126 14765 ft 283 kts 110°
2026-05-08 12:37 4.88586 -74.40458 14786 ft 284 kts 133°
2026-05-08 12:37 4.86994 -74.39331 14807 ft 286 kts 151°
2026-05-08 12:37 4.85220 -74.38419 14823 ft 287 kts 152°
2026-05-08 12:37 4.83443 -74.37510 14848 ft 287 kts 151°
2026-05-08 12:38 4.81664 -74.36597 14833 ft 286 kts 151°
2026-05-08 12:38 4.79904 -74.35692 14558 ft 283 kts 151°
2026-05-08 12:38 4.78154 -74.34790 14099 ft 282 kts 150°
2026-05-08 12:38 4.76424 -74.33872 13662 ft 281 kts 148°
2026-05-08 12:39 4.74751 -74.32900 13347 ft 271 kts 147°
2026-05-08 12:39 4.73257 -74.31994 13752 ft 236 kts 146°
2026-05-08 12:39 4.71899 -74.31163 13630 ft 221 kts 146°
2026-05-08 12:39 4.70614 -74.30373 13389 ft 209 kts 146°
2026-05-08 12:40 4.69405 -74.29635 13274 ft 198 kts 146°
2026-05-08 12:40 4.68254 -74.28916 13083 ft 192 kts 141°
2026-05-08 12:40 4.67270 -74.28037 12839 ft 189 kts 135°
2026-05-08 12:40 4.66305 -74.27145 12712 ft 189 kts 135°
2026-05-08 12:41 4.65979 -74.26845 12685 ft 189 kts 135°
2026-05-08 12:41 4.65766 -74.26650 12708 ft 190 kts 135°
2026-05-08 12:41 4.64782 -74.25753 12699 ft 191 kts 135°
2026-05-08 12:41 4.63797 -74.24855 12697 ft 191 kts 135°
2026-05-08 12:42 4.62911 -74.23884 12696 ft 188 kts 123°
2026-05-08 12:42 4.62174 -74.22796 12697 ft 189 kts 123°
2026-05-08 12:42 4.61427 -74.21708 12704 ft 190 kts 123°
2026-05-08 12:42 4.60679 -74.20622 12705 ft 189 kts 123°
2026-05-08 12:43 4.59931 -74.19538 12625 ft 191 kts 123°
2026-05-08 12:43 4.59193 -74.18469 12369 ft 177 kts 123°
2026-05-08 12:43 4.58530 -74.17511 12139 ft 158 kts 123°
2026-05-08 12:43 4.58008 -74.16602 11929 ft 146 kts 112°
2026-05-08 12:44 4.57694 -74.15634 11751 ft 148 kts 102°
2026-05-08 12:44 4.57568 -74.14611 11559 ft 149 kts 91°
2026-05-08 12:44 4.57647 -74.13573 11366 ft 150 kts 81°
2026-05-08 12:44 4.57929 -74.12572 11171 ft 150 kts 70°
2026-05-08 12:45 4.58409 -74.11648 10974 ft 149 kts 59°
2026-05-08 12:45 4.59068 -74.10833 10779 ft 151 kts 48°
2026-05-08 12:45 4.59885 -74.10160 10583 ft 153 kts 35°
2026-05-08 12:45 4.60832 -74.09663 10375 ft 155 kts 24°
2026-05-08 12:46 4.61851 -74.09352 10183 ft 155 kts 18°
2026-05-08 12:46 4.62891 -74.09069 9954 ft 155 kts 17°
2026-05-08 12:46 4.63925 -74.08788 9749 ft 154 kts 17°
2026-05-08 12:46 4.64987 -74.08669 9544 ft 155 kts 359°
2026-05-08 12:47 4.66036 -74.08914 9321 ft 155 kts 339°
2026-05-08 12:47 4.66943 -74.09493 9111 ft 156 kts 319°
2026-05-08 12:47 4.67639 -74.10330 8894 ft 156 kts 308°
2026-05-08 12:47 4.68293 -74.11191 8685 ft 155 kts 309°
2026-05-08 12:48 4.68943 -74.12049 8497 ft 154 kts 308°
2026-05-08 12:48 4.69587 -74.12896 8369 ft 143 kts 309°
2026-05-08 12:48 4.70101 -74.13572 8369 ft 98 kts 307°
2026-05-08 12:48 4.70416 -74.13991 8368 ft 62 kts 307°
2026-05-08 12:49 4.70666 -74.14320 8370 ft 57 kts 307°
2026-05-08 12:49 4.70901 -74.14630 8369 ft 55 kts 307°
2026-05-08 12:49 4.71127 -74.14928 8368 ft 53 kts 307°
2026-05-08 12:49 4.71297 -74.15155 8370 ft 17 kts 307°
2026-05-08 12:50 4.71287 -74.15243 8371 ft 15 kts 227°
2026-05-08 12:50 4.71202 -74.15304 8371 ft 16 kts 180°
2026-05-08 12:50 4.71110 -74.15234 8371 ft 18 kts 127°
2026-05-08 12:50 4.71027 -74.15125 8371 ft 21 kts 127°
2026-05-08 12:51 4.70934 -74.15000 8370 ft 24 kts 127°
2026-05-08 12:51 4.70715 -74.14711 8370 ft 28 kts 127°
2026-05-08 12:51 4.70591 -74.14546 8370 ft 31 kts 127°
2026-05-08 12:52 4.70461 -74.14375 8370 ft 25 kts 127°
2026-05-08 12:52 4.70344 -74.14374 8371 ft 11 kts 217°
2026-05-08 12:52 4.70275 -74.14426 8370 ft 14 kts 217°
2026-05-08 12:53 4.70211 -74.14472 8370 ft 7 kts 201°
2026-05-08 12:53 4.70174 -74.14438 8370 ft 9 kts 126°
2026-05-08 12:53 4.70158 -74.14417 8370 ft 2 kts 127°
2026-05-08 12:53 4.70154 -74.14412 8370 ft 0 kts 127°